CW2327 Weather Reports


time (UTC)temp
C
wind
direction
speed
KPH
gust
KPH
rain 1hr
cm
rain 24hr
cm
rain mn
cm
humidity
%
barometer
mb
20240614110949 22 5 4.8 6.4 0.00 0.00 0.00 76 1016.0
20240614110449 22 14 0.0 6.4 0.00 0.00 0.00 76 1016.0
20240614104449 22 4 0.0 6.4 0.00 0.00 0.00 75 1016.0
20240614103949 22 3 0.0 6.4 0.00 0.00 0.00 76 1016.0
20240614103449 22 2 0.0 6.4 0.00 0.00 0.00 74 1015.0
20240614102949 22 5 0.0 6.4 0.00 0.00 0.00 74 1015.0
20240614101449 22 0 0.0 0.0 0.00 0.00 0.00 73 1015.0
20240614100950 22 219 0.0 4.8 0.00 0.00 0.00 73 1015.0
20240614100449 22 303 0.0 6.4 0.00 0.00 0.00 73 1015.0
20240614095949 22 9 4.8 6.4 0.00 0.00 0.00 72 1015.0
20240614095449 22 0 0.0 0.0 0.00 0.00 0.00 72 1015.0
20240614094949 22 0 0.0 0.0 0.00 0.00 0.00 72 1015.0
20240614093949 22 359 0.0 8.0 0.00 0.00 0.00 71 1015.0
20240614093449 22 0 0.0 0.0 0.00 0.00 0.00 71 1015.0
20240614092950 22 24 0.0 11.3 0.00 0.00 0.00 71 1015.0
20240614092449 22 15 0.0 11.3 0.00 0.00 0.00 71 1015.0
20240614091950 22 7 0.0 6.4 0.00 0.00 0.00 70 1015.0
20240614091449 22 359 0.0 8.0 0.00 0.00 0.00 70 1015.0
20240614090950 22 4 0.0 8.0 0.00 0.00 0.00 70 1015.0
20240614090449 22 1 4.8 9.7 0.00 0.00 0.00 69 1015.0
20240614085949 23 355 0.0 9.7 0.00 0.00 0.00 69 1015.0
20240614085449 23 1 0.0 8.0 0.00 0.00 0.00 68 1015.0
20240614084949 23 5 4.8 9.7 0.00 0.00 0.00 68 1015.0
20240614083950 23 8 6.4 11.3 0.00 0.00 0.00 67 1015.0
20240614083450 23 11 6.4 11.3 0.00 0.00 0.00 66 1015.0
20240614082950 23 7 0.0 6.4 0.00 0.00 0.00 66 1015.0
20240614082450 23 9 0.0 8.0 0.00 0.00 0.00 65 1015.0
20240614081950 23 7 0.0 8.0 0.00 0.00 0.00 64 1015.0
20240614080950 24 3 4.8 8.0 0.00 0.00 0.00 63 1015.0
20240614080449 24 5 4.8 11.3 0.00 0.00 0.00 63 1015.0
20240614075949 24 6 4.8 11.3 0.00 0.00 0.00 63 1015.0
20240614075449 24 4 0.0 9.7 0.00 0.00 0.00 63 1015.0
20240614074950 24 3 6.4 6.4 0.00 0.00 0.00 63 1015.0
20240614074450 24 3 0.0 8.0 0.00 0.00 0.00 63 1015.0
20240614073449 25 6 4.8 11.3 0.00 0.00 0.00 62 1015.0
20240614072950 25 4 4.8 11.3 0.00 0.00 0.00 61 1015.0
20240614072450 25 24 0.0 12.9 0.00 0.00 0.00 61 1015.0
20240614071950 25 23 4.8 12.9 0.00 0.00 0.00 61 1014.0
20240614071449 25 19 8.0 11.3 0.00 0.00 0.00 61 1014.0
20240614070949 25 19 4.8 9.7 0.00 0.00 0.00 62 1014.0
20240614070449 25 13 4.8 9.7 0.00 0.00 0.00 62 1014.0
20240614065449 25 2 0.0 9.7 0.00 0.00 0.00 62 1014.0
20240614064949 25 4 0.0 8.0 0.00 0.00 0.00 62 1015.0
20240614064449 25 15 4.8 6.4 0.00 0.00 0.00 63 1015.0
20240614063950 26 12 0.0 16.1 0.00 0.00 0.00 62 1015.0
20240614063450 26 13 6.4 16.1 0.00 0.00 0.00 62 1014.0
20240614062950 26 13 9.7 16.1 0.00 0.00 0.00 63 1014.0
20240614062450 26 10 11.3 16.1 0.00 0.00 0.00 64 1014.0
20240614061951 26 18 4.8 11.3 0.00 0.00 0.00 65 1014.0
20240614061450 25 26 6.4 11.3 0.00 0.00 0.00 65 1014.0
20240614060951 25 250 0.0 6.4 0.00 0.00 0.00 65 1014.0
20240614060450 25 250 0.0 6.4 0.00 0.00 0.00 65 1014.0
20240614055950 25 248 0.0 6.4 0.00 0.00 0.00 65 1014.0
20240614055449 25 22 0.0 4.8 0.00 0.00 0.00 65 1014.0
20240614054949 25 22 0.0 4.8 0.00 0.00 0.00 65 1014.0
20240614053949 26 0 0.0 0.0 0.00 0.00 0.00 65 1014.0
20240614053449 26 0 0.0 0.0 0.00 0.00 0.00 65 1014.0
20240614051950 26 0 0.0 0.0 0.00 0.00 0.00 64 1014.0
20240614051450 27 261 0.0 4.8 0.00 0.00 0.00 63 1014.0
20240614050950 27 261 0.0 4.8 0.00 0.00 0.00 63 1014.0
20240614050450 27 264 0.0 8.0 0.00 0.00 0.00 63 1014.0
20240614050007 27 37 0.0 8.0 0.00 0.00 0.00 64 1014.0
20240614045450 27 359 0.0 11.3 0.00 0.00 0.00 64 1014.0
20240614044950 27 22 0.0 12.9 0.00 0.00 0.00 64 1014.0
20240614044450 27 31 4.8 12.9 0.00 0.00 0.00 65 1014.0
20240614043450 27 14 6.4 11.3 0.00 0.00 0.00 65 1014.0
20240614042450 27 3 6.4 12.9 0.00 0.00 0.00 65 1013.0
20240614041452 27 234 0.0 6.4 0.00 0.00 0.00 66 1012.0
20240614040951 27 281 0.0 11.3 0.00 0.00 0.00 66 1012.0
20240614040450 27 269 0.0 11.3 0.00 0.00 0.00 66 1012.0
20240614035950 27 249 4.8 8.0 0.00 0.00 0.00 66 1012.0
20240614035450 28 261 4.8 11.3 0.00 0.00 0.00 66 1012.0
20240614034950 28 256 0.0 17.7 0.00 0.00 0.00 66 1012.0
20240614034450 28 259 0.0 17.7 0.00 0.00 0.00 66 1012.0
20240614033950 28 256 4.8 12.9 0.00 0.00 0.00 67 1012.0
20240614033450 28 248 0.0 17.7 0.00 0.00 0.00 67 1011.0
20240614032951 28 250 4.8 17.7 0.00 0.00 0.00 67 1011.0
20240614032450 28 248 9.7 16.1 0.00 0.00 0.00 66 1011.0
20240614031950 28 246 0.0 8.0 0.00 0.00 0.00 66 1012.0
20240614031450 29 244 0.0 8.0 0.00 0.00 0.00 66 1012.0
20240614030950 29 247 0.0 6.4 0.00 0.00 0.00 66 1012.0
20240614030451 28 266 0.0 4.8 0.00 0.00 0.00 66 1012.0
20240614025951 28 0 0.0 0.0 0.00 0.00 0.00 66 1012.0
20240614025450 29 0 0.0 0.0 0.00 0.00 0.00 66 1012.0
20240614024951 29 0 0.0 0.0 0.00 0.00 0.00 66 1011.0
20240614024451 29 0 0.0 0.0 0.00 0.00 0.00 66 1011.0
20240614023950 29 12 0.0 8.0 0.00 0.00 0.00 65 1011.0
20240614022951 30 240 0.0 8.0 0.00 0.00 0.00 65 1011.0
20240614022450 30 240 4.8 8.0 0.00 0.00 0.00 65 1011.0
20240614021950 30 232 4.8 8.0 0.00 0.00 0.00 64 1011.0
20240614021451 30 237 0.0 4.8 0.00 0.00 0.00 64 1011.0
20240614020951 30 237 0.0 8.0 0.00 0.00 0.00 64 1011.0
20240614020450 30 226 0.0 8.0 0.00 0.00 0.00 63 1010.0
20240614015951 30 214 0.0 11.3 0.00 0.00 0.00 63 1010.0
20240614014951 30 160 0.0 6.4 0.00 0.00 0.00 63 1010.0
20240614014450 30 174 0.0 6.4 0.00 0.00 0.00 63 1010.0
20240614013950 30 232 0.0 6.4 0.00 0.00 0.00 63 1010.0
20240614013450 30 0 0.0 0.0 0.00 0.00 0.00 63 1010.0
20240614012950 31 0 0.0 0.0 0.00 0.00 0.00 63 1010.0
20240614012450 30 0 0.0 0.0 0.00 0.00 0.00 63 1010.0
20240614010950 31 0 0.0 0.0 0.00 0.00 0.00 62 1010.0
20240614010451 31 205 0.0 4.8 0.00 0.00 0.00 61 1010.0
20240614005951 31 207 0.0 4.8 0.00 0.00 0.00 61 1010.0
20240614004951 31 185 0.0 4.8 0.00 0.00 0.00 61 1010.0
20240614004451 31 184 0.0 4.8 0.00 0.00 0.00 61 1010.0
20240614003450 32 170 0.0 6.4 0.00 0.00 0.00 61 1010.0
20240614002951 32 186 0.0 6.4 0.00 0.00 0.00 61 1010.0
20240614002451 32 201 0.0 6.4 0.00 0.00 0.00 60 1010.0
20240614001451 32 194 0.0 6.4 0.00 0.00 0.00 60 1010.0
20240614000952 32 171 0.0 4.8 0.00 0.00 0.00 60 1010.0
20240613235951 32 206 0.0 6.4 0.00 0.00 0.00 60 1009.0
20240613235451 32 196 0.0 4.8 0.00 0.00 0.00 58 1009.0
20240613234950 33 185 0.0 6.4 0.00 0.00 0.00 58 1009.0
20240613234450 33 178 0.0 8.0 0.00 0.00 0.00 57 1009.0
20240613233451 33 202 0.0 8.0 0.00 0.00 0.00 57 1009.0
20240613232951 33 207 0.0 8.0 0.00 0.00 0.00 57 1009.0
20240613232451 33 221 0.0 8.0 0.00 0.00 0.00 57 1009.0
20240613231951 34 216 4.8 8.0 0.00 0.00 0.00 57 1009.0
20240613231450 34 199 0.0 12.9 0.00 0.00 0.00 57 1009.0
20240613230950 34 198 6.4 12.9 0.00 0.00 0.00 57 1009.0
20240613230451 34 187 4.8 11.3 0.00 0.00 0.00 57 1009.0
20240613225951 35 182 4.8 9.7 0.00 0.00 0.00 56 1010.0
20240613225450 35 189 4.8 11.3 0.00 0.00 0.00 57 1010.0
20240613224950 35 192 4.8 11.3 0.00 0.00 0.00 57 1010.0
20240613223951 35 193 0.0 12.9 0.00 0.00 0.00 56 1010.0
20240613222951 35 186 6.4 11.3 0.00 0.00 0.00 56 1010.0
20240613222451 35 186 6.4 12.9 0.00 0.00 0.00 56 1010.0
20240613221951 35 199 4.8 14.5 0.00 0.00 0.00 56 1010.0
20240613221452 35 208 8.0 14.5 0.00 0.00 0.00 55 1010.0
20240613220952 35 196 6.4 12.9 0.00 0.00 0.00 56 1010.0
20240613220451 35 211 4.8 12.9 0.00 0.00 0.00 55 1010.0
20240613215951 35 221 8.0 12.9 0.00 0.00 0.00 56 1010.0
20240613215451 35 194 6.4 11.3 0.00 0.00 0.00 56 1010.0
20240613214951 35 192 4.8 9.7 0.00 0.00 0.00 56 1010.0
20240613214451 35 216 0.0 11.3 0.00 0.00 0.00 57 1010.0
20240613213451 35 214 6.4 12.9 0.00 0.00 0.00 56 1010.0
20240613212451 35 190 8.0 16.1 0.00 0.00 0.00 56 1010.0
20240613211951 35 202 4.8 16.1 0.00 0.00 0.00 56 1010.0
20240613211450 35 194 6.4 12.9 0.00 0.00 0.00 56 1010.0
20240613210951 35 178 4.8 9.7 0.00 0.00 0.00 56 1010.0
20240613210451 35 179 0.0 14.5 0.00 0.00 0.00 56 1010.0
20240613205951 35 176 6.4 14.5 0.00 0.00 0.00 56 1010.0
20240613205451 35 196 6.4 16.1 0.00 0.00 0.00 55 1010.0
20240613204951 35 196 8.0 16.1 0.00 0.00 0.00 56 1010.0
20240613204453 35 174 6.4 16.1 0.00 0.00 0.00 57 1010.0
20240613203953 35 192 4.8 16.1 0.00 0.00 0.00 57 1010.0
20240613203451 35 206 6.4 16.1 0.00 0.00 0.00 56 1010.0
20240613202951 35 188 4.8 12.9 0.00 0.00 0.00 57 1010.0
20240613202451 35 181 8.0 16.1 0.00 0.00 0.00 57 1010.0
20240613201951 35 184 6.4 16.1 0.00 0.00 0.00 56 1010.0
20240613201451 35 190 4.8 14.5 0.00 0.00 0.00 57 1010.0
20240613200952 35 189 9.7 11.3 0.00 0.00 0.00 58 1010.0
20240613200451 35 182 4.8 16.1 0.00 0.00 0.00 57 1010.0
20240613195451 35 179 8.0 16.1 0.00 0.00 0.00 59 1010.0
20240613194951 34 175 8.0 11.3 0.00 0.00 0.00 58 1010.0
20240613193951 34 204 9.7 16.1 0.00 0.00 0.00 57 1010.0
20240613193452 34 194 0.0 16.1 0.00 0.00 0.00 59 1010.0
20240613192951 34 199 9.7 16.1 0.00 0.00 0.00 58 1010.0
20240613192451 34 213 4.8 12.9 0.00 0.00 0.00 59 1010.0
20240613191951 34 213 4.8 11.3 0.00 0.00 0.00 59 1010.0
20240613191451 34 191 4.8 12.9 0.00 0.00 0.00 59 1010.0
20240613190951 33 188 8.0 12.9 0.00 0.00 0.00 59 1010.0
20240613185951 33 163 8.0 11.3 0.00 0.00 0.00 59 1010.0
20240613185451 34 179 4.8 16.1 0.00 0.00 0.00 58 1010.0
20240613184951 34 195 4.8 16.1 0.00 0.00 0.00 59 1010.0
20240613184451 34 203 4.8 11.3 0.00 0.00 0.00 59 1010.0
20240613183451 33 177 6.4 12.9 0.00 0.00 0.00 58 1010.0
20240613182952 33 179 8.0 12.9 0.00 0.00 0.00 59 1010.0
20240613182452 33 185 9.7 11.3 0.00 0.00 0.00 58 1010.0
20240613181952 33 199 6.4 16.1 0.00 0.00 0.00 59 1010.0
20240613181451 33 195 9.7 16.1 0.00 0.00 0.00 59 1010.0
20240613180952 33 203 6.4 12.9 0.00 0.00 0.00 60 1010.0
20240613180451 33 202 6.4 12.9 0.00 0.00 0.00 60 1010.0
20240613175952 33 191 4.8 12.9 0.00 0.00 0.00 60 1010.0
20240613175452 33 203 6.4 12.9 0.00 0.00 0.00 59 1010.0
20240613174453 34 179 6.4 11.3 0.00 0.00 0.00 59 1010.0
20240613173952 34 172 4.8 11.3 0.00 0.00 0.00 59 1010.0
20240613172951 34 198 9.7 12.9 0.00 0.00 0.00 59 1011.0
20240613172452 35 179 4.8 12.9 0.00 0.00 0.00 59 1011.0
20240613171452 34 191 6.4 11.3 0.00 0.00 0.00 59 1011.0
20240613170451 34 191 9.7 11.3 0.00 0.00 0.00 59 1011.0
20240613165952 34 209 4.8 16.1 0.00 0.00 0.00 60 1011.0
20240613165451 33 216 4.8 16.1 0.00 0.00 0.00 61 1011.0
20240613164951 33 200 6.4 12.9 0.00 0.00 0.00 61 1011.0
20240613164451 33 182 6.4 12.9 0.00 0.00 0.00 61 1011.0
20240613163951 32 189 11.3 11.3 0.00 0.00 0.00 61 1011.0
20240613162952 33 168 6.4 11.3 0.00 0.00 0.00 60 1011.0
20240613162451 33 176 0.0 11.3 0.00 0.00 0.00 60 1011.0
20240613161952 33 198 6.4 11.3 0.00 0.00 0.00 62 1011.0
20240613161451 32 196 9.7 11.3 0.00 0.00 0.00 63 1011.0
20240613155953 31 204 6.4 11.3 0.00 0.00 0.00 65 1011.0
20240613155452 30 206 6.4 11.3 0.00 0.00 0.00 66 1011.0
20240613154953 30 210 8.0 11.3 0.00 0.00 0.00 66 1011.0
20240613154452 30 229 6.4 14.5 0.00 0.00 0.00 66 1011.0
20240613153951 30 256 4.8 17.7 0.00 0.00 0.00 67 1011.0
20240613153452 30 249 6.4 17.7 0.00 0.00 0.00 67 1011.0
20240613152952 29 208 0.0 16.1 0.00 0.00 0.00 68 1011.0
20240613152452 29 184 8.0 11.3 0.00 0.00 0.00 68 1011.0
20240613145953 28 195 4.8 9.7 0.00 0.00 0.00 70 1011.0
20240613145452 27 185 6.4 9.7 0.00 0.00 0.00 70 1011.0
20240613144952 27 194 6.4 12.9 0.00 0.00 0.00 70 1011.0
20240613144452 27 203 0.0 12.9 0.00 0.00 0.00 70 1011.0
20240613143952 27 211 6.4 11.3 0.00 0.00 0.00 70 1011.0
20240613142952 27 212 9.7 16.1 0.00 0.00 0.00 71 1011.0
20240613142452 27 206 9.7 12.9 0.00 0.00 0.00 71 1011.0
20240613141952 26 178 4.8 11.3 0.00 0.00 0.00 72 1011.0
20240613141453 26 182 0.0 11.3 0.00 0.00 0.00 72 1011.0
20240613140952 26 198 0.0 11.3 0.00 0.00 0.00 72 1011.0
20240613140452 26 206 6.4 11.3 0.00 0.00 0.00 72 1011.0
20240613135953 26 212 4.8 11.3 0.00 0.00 0.00 72 1011.0
20240613135452 26 218 6.4 12.9 0.00 0.00 0.00 72 1011.0
20240613134952 26 222 0.0 12.9 0.00 0.00 0.00 72 1011.0
20240613134452 25 202 0.0 12.9 0.00 0.00 0.00 73 1011.0
20240613133951 25 197 6.4 12.9 0.00 0.00 0.00 73 1011.0
20240613133452 25 201 6.4 16.1 0.00 0.00 0.00 73 1011.0
20240613132952 25 209 9.7 16.1 0.00 0.00 0.00 73 1011.0
20240613132452 25 200 6.4 12.9 0.00 0.00 0.00 73 1011.0
20240613131452 25 207 4.8 8.0 0.00 0.00 0.00 74 1011.0
20240613130452 24 205 0.0 12.9 0.00 0.00 0.00 74 1011.0
20240613125952 24 204 6.4 6.4 0.00 0.00 0.00 74 1011.0
20240613125453 23 195 0.0 6.4 0.00 0.00 0.00 74 1011.0
20240613124952 23 207 4.8 6.4 0.00 0.00 0.00 74 1011.0
20240613124452 23 235 0.0 6.4 0.00 0.00 0.00 74 1011.0
20240613123952 23 203 0.0 4.8 0.00 0.00 0.00 75 1011.0
20240613123452 23 203 0.0 4.8 0.00 0.00 0.00 75 1011.0
20240613122952 22 0 0.0 0.0 0.00 0.00 0.00 75 1011.0
20240613122452 22 0 0.0 0.0 0.00 0.00 0.00 75 1011.0
20240613121952 22 0 0.0 0.0 0.00 0.00 0.00 75 1011.0
20240613121453 22 0 0.0 0.0 0.00 0.00 0.00 75 1011.0
20240613120953 22 0 0.0 0.0 0.00 0.00 0.00 75 1011.0
20240613120452 22 0 0.0 0.0 0.00 0.00 0.00 75 1011.0
20240613115952 22 0 0.0 0.0 0.00 0.00 0.00 75 1011.0
20240613114952 22 0 0.0 0.0 0.00 0.00 0.00 75 1011.0
20240613114452 22 0 0.0 0.0 0.00 0.00 0.00 75 1011.0
20240613113952 22 0 0.0 0.0 0.00 0.00 0.00 74 1011.0
20240613113452 22 0 0.0 0.0 0.00 0.00 0.00 74 1011.0
20240613112953 22 0 0.0 0.0 0.00 0.00 0.00 74 1011.0
20240613112453 22 0 0.0 0.0 0.00 0.00 0.00 74 1011.0
20240613111952 22 0 0.0 0.0 0.00 0.00 0.00 74 1011.0
20240613111453 21 0 0.0 0.0 0.00 0.00 0.00 75 1011.0